Warroad, MN

9:03 PM CST on January 20, 2017 (GMT -0600)
Warroad International-Carlson

Weather History for KRRT - August, 2013

Change the Weather History Date:

Thursday, August 1, 2013

  Actual Average Record
Temperature  
Mean Temperature 63 °F -  
Max Temperature 73 °F 78 °F 92 °F (1951)
Min Temperature 53 °F 55 °F 41 °F (1972)
Degree Days  
Heating Degree Days 2    
Growing Degree Days 13 (Base 50)    
Moisture  
Dew Point 54 °F    
Average Humidity 75    
Maximum Humidity 88    
Minimum Humidity 53    
Precipitation  
Precipitation 0.00 in - - ()
Sea Level Pressure  
Sea Level Pressure 29.93 in    
Wind  
Wind Speed 6 mph (West)    
Max Wind Speed 15 mph    
Max Gust Speed 20 mph    
Visibility 10 miles    
Events Thunderstorm    
Averages and records for this station are not official NWS values.
T = Trace of Precipitation, MM = Missing Value Source: NWS Daily Summary

Daily Weather History Graph

Daily Weather History Graph

Search for Another Location

Airport or City:

Trip Planner

Search our weather history database for the weather conditions in past years. The results will help you decide how hot, cold, wet, or windy it might be!

Date:

Astronomy

Aug. 01, 2013 Rise Set
Actual Time 5:54 AM CDT 8:59 PM CDT
Civil Twilight 5:17 AM CDT 9:36 PM CDT
Nautical Twilight 4:28 AM CDT 10:25 PM CDT
Astronomical Twilight 3:27 AM CDT 11:25 PM CDT
Moon 1:29 AM CDT (8/1) 5:12 PM CDT (8/1)
Length of Visible Light 16h 19m
Length of Day
15h 04m
Waning Crescent, 23% of the Moon is Illuminated
Aug 1
Waning Crescent
Aug 6
New
Aug 14
First Quarter
Aug 20
Full
Aug 28
Last Quarter

Hourly Weather History & Observations

Time (CDT) Temp. Dew Point Humidity Pressure Visibility Wind Dir Wind Speed Gust Speed Precip Events Conditions
12:14 AM 57.2 °F 53.6 °F 88% 29.96 in 10.0 mi WSW 5.8 mph - N/A   Clear
12:34 AM 57.2 °F 53.6 °F 88% 29.96 in 10.0 mi WSW 5.8 mph - N/A   Clear
12:53 AM 57.2 °F 53.6 °F 88% 29.96 in 10.0 mi WSW 6.9 mph - N/A   Clear
1:14 AM 55.4 °F 51.8 °F 88% 29.96 in 10.0 mi WSW 6.9 mph - N/A   Clear
1:34 AM 55.4 °F 51.8 °F 88% 29.96 in 10.0 mi WSW 5.8 mph - N/A   Clear
1:54 AM 55.4 °F 51.8 °F 88% 29.96 in 10.0 mi WSW 5.8 mph - N/A   Clear
2:14 AM 55.4 °F 51.8 °F 88% 29.96 in 10.0 mi WSW 6.9 mph - N/A   Clear
2:33 AM 55.4 °F 51.8 °F 88% 29.97 in 10.0 mi West 4.6 mph - N/A   Clear
2:54 AM 55.4 °F 51.8 °F 88% 29.96 in 10.0 mi WSW 3.5 mph - N/A   Clear
3:14 AM 55.4 °F 51.8 °F 88% 29.96 in 10.0 mi WSW 4.6 mph - N/A   Clear
3:33 AM 55.4 °F 51.8 °F 88% 29.96 in 10.0 mi WSW 4.6 mph - N/A   Clear
3:54 AM 55.4 °F 51.8 °F 88% 29.96 in 10.0 mi WSW 3.5 mph - N/A   Clear
4:14 AM 55.4 °F 51.8 °F 88% 29.97 in 10.0 mi SW 3.5 mph - N/A   Clear
4:33 AM 55.4 °F 51.8 °F 88% 29.96 in 10.0 mi SW 3.5 mph - N/A   Clear
4:54 AM 53.6 °F 50.0 °F 88% 29.96 in 10.0 mi SW 3.5 mph - N/A   Clear
5:14 AM 53.6 °F 50.0 °F 88% 29.97 in 10.0 mi SW 3.5 mph - N/A   Clear
5:34 AM 53.6 °F 50.0 °F 88% 29.97 in 10.0 mi WSW 4.6 mph - N/A   Clear
5:54 AM 53.6 °F 48.2 °F 82% 29.97 in 10.0 mi WSW 5.8 mph - N/A   Clear
6:14 AM 53.6 °F 48.2 °F 82% 29.97 in 10.0 mi WSW 5.8 mph - N/A   Clear
6:34 AM 53.6 °F 48.2 °F 82% 29.97 in 10.0 mi Calm Calm - N/A   Clear
6:54 AM 53.6 °F 48.2 °F 82% 29.97 in 10.0 mi SW 3.5 mph - N/A   Clear
7:14 AM 53.6 °F 50.0 °F 88% 29.98 in 10.0 mi SW 5.8 mph - N/A   Scattered Clouds
7:33 AM 53.6 °F 50.0 °F 88% 29.97 in 10.0 mi SW 3.5 mph - N/A   Scattered Clouds
7:54 AM 55.4 °F 51.8 °F 88% 29.97 in 10.0 mi SW 3.5 mph - N/A   Clear
8:14 AM 57.2 °F 53.6 °F 88% 29.97 in 10.0 mi WSW 4.6 mph - N/A   Scattered Clouds
8:33 AM 59.0 °F 55.4 °F 88% 29.97 in 10.0 mi WSW 5.8 mph - N/A   Scattered Clouds
8:54 AM 60.8 °F 55.4 °F 82% 29.97 in 10.0 mi WSW 5.8 mph - N/A   Clear
9:14 AM 62.6 °F 57.2 °F 82% 29.96 in 10.0 mi WSW 5.8 mph - N/A   Clear
9:34 AM 64.4 °F 57.2 °F 77% 29.96 in 10.0 mi WSW 5.8 mph - N/A   Clear
9:54 AM 64.4 °F 57.2 °F 77% 29.97 in 10.0 mi WSW 4.6 mph - N/A   Clear
10:14 AM 66.2 °F 57.2 °F 73% 29.96 in 10.0 mi West 8.1 mph - N/A   Clear
10:34 AM 66.2 °F 57.2 °F 73% 29.96 in 10.0 mi WNW 9.2 mph - N/A   Clear
10:54 AM 68.0 °F 59.0 °F 73% 29.96 in 10.0 mi West 8.1 mph - N/A   Scattered Clouds
11:14 AM 66.2 °F 57.2 °F 73% 29.96 in 10.0 mi West 6.9 mph - N/A   Scattered Clouds
11:34 AM 68.0 °F 57.2 °F 68% 29.96 in 10.0 mi West 10.4 mph - N/A   Clear
11:54 AM 69.8 °F 57.2 °F 64% 29.95 in 10.0 mi NW 6.9 mph - N/A   Clear
12:14 PM 69.8 °F 57.2 °F 64% 29.95 in 10.0 mi West 6.9 mph 16.1 mph N/A   Scattered Clouds
12:34 PM 71.6 °F 57.2 °F 60% 29.94 in 10.0 mi West 8.1 mph - N/A   Scattered Clouds
12:54 PM 69.8 °F 57.2 °F 64% 29.93 in 10.0 mi WNW 5.8 mph - N/A   Scattered Clouds
1:11 PM 69.8 °F 57.2 °F 64% 29.93 in 10.0 mi West 3.5 mph - N/A   Mostly Cloudy
1:34 PM 71.6 °F 57.2 °F 60% 29.92 in 10.0 mi WSW 5.8 mph - N/A   Scattered Clouds
1:54 PM 69.8 °F 57.2 °F 64% 29.91 in 10.0 mi West 4.6 mph - N/A   Scattered Clouds
2:14 PM 69.8 °F 57.2 °F 64% 29.91 in 10.0 mi WSW 5.8 mph - N/A   Mostly Cloudy
2:34 PM 69.8 °F 59.0 °F 68% 29.90 in 10.0 mi WNW 5.8 mph - N/A   Scattered Clouds
2:54 PM 69.8 °F 57.2 °F 64% 29.90 in 10.0 mi West 8.1 mph - N/A   Scattered Clouds
3:14 PM 71.6 °F 59.0 °F 64% 29.90 in 10.0 mi WSW 12.7 mph 19.6 mph N/A   Mostly Cloudy
3:34 PM 69.8 °F 57.2 °F 64% 29.90 in 10.0 mi SW 6.9 mph - N/A   Scattered Clouds
3:54 PM 71.6 °F 59.0 °F 64% 29.88 in 10.0 mi WSW 8.1 mph - N/A   Clear
4:14 PM 73.4 °F 57.2 °F 57% 29.88 in 10.0 mi WNW 6.9 mph - N/A   Scattered Clouds
4:34 PM 73.4 °F 57.2 °F 57% 29.87 in 10.0 mi WNW 9.2 mph - N/A   Scattered Clouds
4:54 PM 73.4 °F 57.2 °F 57% 29.87 in 10.0 mi West 10.4 mph 16.1 mph N/A   Clear
5:14 PM 73.4 °F 57.2 °F 57% 29.86 in 10.0 mi West 8.1 mph - N/A Thunderstorm Clear
5:34 PM 73.4 °F 57.2 °F 57% 29.86 in 10.0 mi WNW 9.2 mph 17.3 mph N/A   Scattered Clouds
5:54 PM 73.4 °F 57.2 °F 57% 29.86 in 10.0 mi WNW 9.2 mph - N/A   Scattered Clouds
6:14 PM 73.4 °F 55.4 °F 53% 29.86 in 10.0 mi WNW 10.4 mph 17.3 mph N/A   Scattered Clouds
6:34 PM 73.4 °F 57.2 °F 57% 29.86 in 10.0 mi WNW 15.0 mph 19.6 mph N/A   Scattered Clouds
6:54 PM 71.6 °F 57.2 °F 60% 29.86 in 10.0 mi West 9.2 mph 18.4 mph N/A   Clear
7:14 PM 71.6 °F 55.4 °F 57% 29.87 in 10.0 mi West 11.5 mph 18.4 mph N/A   Clear
7:34 PM 71.6 °F 55.4 °F 57% 29.86 in 10.0 mi WNW 11.5 mph 17.3 mph N/A   Clear
7:54 PM 69.8 °F 55.4 °F 60% 29.87 in 10.0 mi WNW 9.2 mph - N/A   Clear
8:14 PM 69.8 °F 55.4 °F 60% 29.87 in 7.0 mi WNW 6.9 mph - N/A   Clear
8:34 PM 66.2 °F 55.4 °F 68% 29.87 in 4.0 mi WNW 8.1 mph - N/A   Haze
8:54 PM 64.4 °F 55.4 °F 73% 29.88 in 5.0 mi WNW 5.8 mph - N/A   Haze
9:14 PM 64.4 °F 55.4 °F 73% 29.88 in 10.0 mi NNW 3.5 mph - N/A   Scattered Clouds
9:33 PM 62.6 °F 55.4 °F 77% 29.89 in 10.0 mi Calm Calm - N/A   Clear
9:54 PM 60.8 °F 53.6 °F 77% 29.89 in 10.0 mi Calm Calm - N/A   Clear
10:14 PM 59.0 °F 53.6 °F 82% 29.89 in 10.0 mi WNW 3.5 mph - N/A   Clear
10:33 PM 59.0 °F 53.6 °F 82% 29.89 in 10.0 mi WNW 5.8 mph - N/A   Clear
10:54 PM 59.0 °F 51.8 °F 77% 29.90 in 10.0 mi WNW 4.6 mph - N/A   Clear
11:14 PM 59.0 °F 51.8 °F 77% 29.90 in 10.0 mi West 3.5 mph - N/A   Clear
11:34 PM 57.2 °F 51.8 °F 82% 29.90 in 10.0 mi West 3.5 mph - N/A   Clear
11:54 PM 55.4 °F 51.8 °F 88% 29.90 in 10.0 mi Calm Calm - N/A   Clear